Regional Weather Roundup
Issued by NWS Albany, NY

Home | Current Version | Previous Version | Graphics & Text | Print | Product List | Glossary On
Versions: 1 2 3 4 5 6 7 8 9 10 11 12 13 14 15 16 17 18 19 20 21 22 23 24 25 26 27 28 29 30 31 32 33 34 35 36 37 38 39 40 41 42 43 44 45 46 47 48 49 50
000
ASUS41 KALY 280010
RWRALY

NEW YORK STATE HOURLY WEATHER ROUNDUP
NATIONAL WEATHER SERVICE ALBANY NY
700 PM EST TUE JAN 27 2015

NOTE: "FAIR" INDICATES FEW OR NO CLOUDS BELOW 12,000 FEET WITH NO
SIGNIFICANT WEATHER AND/OR NO OBSTRUCTIONS TO VISIBILITY.

NYZ032-033-038>043-046>054-057>066-NYZ062>081-280100-
EAST


CITY           SKY/WX    TMP DP  RH WIND       PRES   REMARKS
ALBANY         FLURRIES  12   0  58 N14       29.85R WCI  -3
GLENS FALLS    CLOUDY    13   0  56 NE18G25   29.87R WCI  -4
POUGHKEEPSIE   CLOUDY    17   7  64 N10       29.77R WCI   5
NEWBURGH       CLOUDY    16  10  79 NE14      29.75R WCI   1
MONTGOMERY     CLOUDY    17  11  77 NE8       29.74R WCI   7
WHITE PLAINS   CLOUDY    20  10  65 N22G30    29.70R WCI   3
ISLIP          CLOUDY    21  12  68 N23G35    29.67R BLWGSNOWWCI   5
NEW YORK CITY  CLOUDY    26  15  63 N14       29.72R WCI  14
CENTRAL PARK   CLOUDY    26  14  60 VRB5      29.74R WCI  20
$$

NYZ005>009-017-018-044>046-055-056-280100-
CENTRAL


CITY           SKY/WX    TMP DP  RH WIND       PRES   REMARKS
FULTON         PTCLDY    14  -4  44 N12G21    30.04R WCI   0
SYRACUSE       MOCLDY    10  -3  55 NW13      30.03R WCI  -5
ROME           MOCLDY    10  -3  55 NW16      29.99R WCI  -7
ELMIRA         PTCLDY    12   3  67 VRB6      29.97R WCI   3
BINGHAMTON     PTCLDY     8   2  76 N16G23    29.82R WCI -10
MONTICELLO     CLOUDY    12   7  79 N18G25    29.72R WCI  -5
$$

NYZ026>034-041>043-280100-
NORTH


CITY           SKY/WX    TMP DP  RH WIND       PRES   REMARKS
WATERTOWN      PTCLDY    11  -5  48 NE5       30.07R WCI   3
FORT DRUM      NOT AVBL
MASSENA        MOCLDY    10  -2  58 W5        30.06F WCI   2
SARANAC LAKE   CLOUDY     5  -7  57 CALM      29.86R
PLATTSBURGH    FLURRIES  10   2  69 N15       29.99R WCI  -7
$$

NYZ001>004-010>016-019>021-280100-
WEST


CITY           SKY/WX    TMP DP  RH WIND       PRES   REMARKS
NIAGARA FALLS  MOCLDY    11   3  70 CALM      30.09S
BUFFALO        MOCLDY    14   4  64 W3        30.08S
DUNKIRK        PTCLDY    15   7  70 NW7       30.11R WCI   5
JAMESTOWN      CLOUDY    12   7  79 N10       30.00R WCI  -1
WELLSVILLE     PTCLDY     8   3  80 NW10      29.93S WCI  -6
ROCHESTER      PTCLDY    14   2  58 W6        30.07S WCI   5
PENN YAN       PTCLDY    11   1  64 NW7       30.00S WCI   0
$$

             KEY
       WCI = WIND CHILL INDEX
       VSB = VISIBILITY
       HX  = HEAT INDEX
$$


USA.gov is the U.S. government's official web portal to all federal, state and local government web resources and services.